DW8343 Weather Reports


time (UTC)temp
C
wind
direction
speed
KPH
gust
KPH
rain 1hr
cm
rain 24hr
cm
rain mn
cm
humidity
%
barometer
mb
20260510141426 15 59 1.6 1.6 0.00 2.06 2.06 99 1018.1
20260510140924 15 107 0.0 0.0 0.18 2.06 2.06 99 1018.3
20260510140419 15 107 0.0 0.0 0.18 2.06 2.06 99 1018.1
20260510135913 15 107 0.0 1.6 0.00 2.03 2.03 99 1017.9
20260510135410 15 107 0.0 1.6 0.00 2.03 2.03 99 1017.9
20260510134907 15 275 0.0 1.6 0.00 2.03 2.03 99 1017.6
20260510134403 15 43 0.0 1.6 0.00 2.03 2.03 99 1017.9
20260510133859 15 43 0.0 1.6 0.00 2.03 2.03 99 1018.4
20260510133356 15 41 0.0 1.6 0.00 2.03 2.03 99 1018.6
20260510132851 15 41 1.6 3.2 0.00 2.03 2.03 99 1018.7
20260510132349 15 43 0.0 1.6 0.13 2.03 2.03 99 1018.8
20260510131846 15 43 0.0 0.0 0.13 2.03 2.03 99 1019.5
20260510131344 15 43 0.0 0.0 0.00 2.01 2.01 99 1019.3
20260510130840 15 345 1.6 4.8 0.30 2.01 2.01 99 1019.0
20260510130337 15 17 0.0 1.6 0.30 1.98 1.98 99 1018.7
20260510125834 15 41 3.2 4.8 0.30 1.96 1.96 99 1018.7
20260510125330 15 227 0.0 1.6 0.30 1.93 1.93 99 1018.9
20260510124827 15 30 0.0 1.6 0.66 1.91 1.91 99 1018.7
20260510124324 14 11 0.0 3.2 0.61 1.88 1.88 99 1018.8
20260510123819 14 54 0.0 3.2 0.18 1.78 1.78 99 1018.8
20260510123315 15 39 0.0 3.2 0.61 1.78 1.78 99 1019.0
20260510122812 14 122 1.6 4.8 0.89 1.75 1.75 99 1018.4
20260510122308 14 344 0.0 4.8 0.61 1.65 1.65 99 1018.2
20260510121804 15 90 1.6 3.2 0.61 1.60 1.60 99 1018.7
20260510121302 15 39 0.0 1.6 0.89 1.55 1.55 99 1018.8
20260510120759 15 53 0.0 1.6 1.07 1.50 1.50 99 1018.8
20260510120255 15 245 0.0 1.6 1.07 1.37 1.37 99 1018.9
20260510115751 14 254 1.6 1.6 1.27 1.30 1.30 99 1019.2
20260510115249 14 88 0.0 1.6 1.07 1.17 1.17 99 1018.7
20260510114744 14 123 1.6 1.6 0.61 1.07 1.07 99 1018.5
20260510114242 14 354 1.6 1.6 0.13 0.99 0.99 99 1018.3
20260510113737 14 258 0.0 1.6 0.00 0.97 0.97 99 1018.0
20260510113235 14 292 0.0 3.2 0.18 0.97 0.97 99 1017.6
20260510112731 14 6 1.6 4.8 0.18 0.97 0.97 99 1017.0
20260510112228 15 41 0.0 1.6 0.00 0.94 0.94 99 1017.1
20260510111723 15 7 0.0 1.6 0.00 0.94 0.94 99 1016.8
20260510111220 15 25 0.0 3.2 0.00 0.94 0.94 99 1016.4
20260510110720 15 27 0.0 1.6 0.00 0.94 0.94 99 1015.8
20260510110218 15 332 1.6 1.6 0.00 0.94 0.94 99 1016.1
20260510105718 15 18 0.0 1.6 0.00 0.94 0.94 99 1015.4
20260510105217 15 15 0.0 0.0 0.00 0.94 0.94 99 1014.8
20260510104714 15 19 0.0 1.6 0.18 0.94 0.94 99 1014.4
20260510104212 15 28 0.0 1.6 0.30 0.94 0.94 99 1014.7
20260510103708 15 256 0.0 3.2 1.63 0.91 0.91 99 1014.0
20260510103205 15 335 0.0 1.6 3.30 0.86 0.86 98 1013.5
20260510102700 15 15 0.0 1.6 2.29 0.61 0.61 98 1014.0
20260510102156 16 340 0.0 0.0 0.79 0.23 0.23 97 1013.7
20260510101654 16 19 0.0 0.0 0.79 0.18 0.18 96 1013.6
20260510101152 16 232 0.0 1.6 0.43 0.10 0.10 96 1013.8
20260510100653 16 37 0.0 1.6 0.30 0.05 0.05 95 1014.0
20260510100151 16 240 1.6 1.6 0.18 0.03 0.03 95 1013.6
20260510095646 16 46 0.0 0.0 0.00 0.00 0.00 94 1013.2
20260510095141 16 37 1.6 1.6 0.00 0.00 0.00 94 1013.4
20260510094640 16 339 0.0 0.0 0.00 0.00 0.00 94 1013.3
20260510094136 16 340 0.0 1.6 0.00 0.00 0.00 94 1013.3
20260510093632 16 342 0.0 0.0 0.00 0.00 0.00 94 1013.2
20260510093130 16 342 0.0 0.0 0.00 0.00 0.00 93 1013.3
20260510092626 16 342 0.0 1.6 0.00 0.00 0.00 93 1013.4
20260510092121 16 342 1.6 1.6 0.00 0.00 0.00 93 1013.4
20260510091618 16 9 0.0 0.0 0.00 0.00 0.00 93 1013.5
20260510091114 16 9 0.0 0.0 0.00 0.00 0.00 93 1013.3
20260510090611 16 9 0.0 1.6 0.00 0.00 0.00 92 1013.2
20260510090107 16 63 0.0 1.6 0.00 0.00 0.00 92 1013.2
20260510085602 16 113 0.0 1.6 0.00 0.00 0.00 91 1013.3
20260510085058 16 48 0.0 3.2 0.00 0.00 0.00 91 1013.1
20260510084554 16 96 0.0 3.2 0.00 0.00 0.00 90 1013.6
20260510084051 16 201 1.6 4.8 0.00 0.00 0.00 90 1013.6
20260510083548 16 240 3.2 3.2 0.00 0.00 0.00 90 1013.5
20260510083044 16 222 0.0 3.2 0.00 0.00 0.00 89 1013.4
20260510082541 16 300 1.6 3.2 0.00 0.00 0.00 89 1013.5
20260510082036 16 159 1.6 3.2 0.00 0.00 0.00 88 1013.5
20260510081532 16 291 3.2 3.2 0.00 0.00 0.00 88 1013.5
20260510081027 16 28 0.0 3.2 0.00 0.00 0.00 87 1013.5
20260510080527 16 239 3.2 3.2 0.00 0.00 0.00 87 1013.7
20260510080024 16 223 1.6 4.8 0.00 0.00 0.00 87 1013.4
20260510075521 16 175 0.0 1.6 0.00 0.00 0.00 88 1013.4
20260510075018 16 153 0.0 4.8 0.00 0.00 0.00 87 1013.4
20260510074516 16 92 0.0 4.8 0.00 0.00 0.00 88 1013.5
20260510074011 16 42 4.8 9.7 0.00 0.00 0.00 88 1013.6
20260510073507 16 156 3.2 3.2 0.00 0.00 0.00 88 1013.4
20260510073004 16 34 1.6 9.7 0.00 0.00 0.00 87 1013.5
20260510072501 16 34 1.6 4.8 0.00 0.00 0.00 87 1013.7
20260510071956 16 61 1.6 12.9 0.00 0.00 0.00 87 1013.3
20260510071452 16 138 1.6 6.4 0.00 0.00 0.00 87 1013.3
20260510070951 16 269 4.8 11.3 0.00 0.00 0.00 88 1013.4
20260510070448 16 102 3.2 9.7 0.00 0.00 0.00 89 1013.2
20260510065943 16 352 3.2 12.9 0.00 0.00 0.00 89 1013.8
20260510065441 16 29 3.2 9.7 0.00 0.00 0.00 89 1013.9
20260510064936 16 91 3.2 4.8 0.00 0.00 0.00 90 1014.2
20260510064434 16 107 6.4 9.7 0.00 0.00 0.00 90 1014.7
20260510063931 16 92 1.6 3.2 0.00 0.00 0.00 91 1014.8
20260510063426 16 62 3.2 4.8 0.00 0.00 0.00 91 1015.3
20260510062924 16 288 1.6 9.7 0.00 0.00 0.00 91 1015.3
20260510062419 16 181 3.2 4.8 0.00 0.00 0.00 92 1015.7
20260510061915 16 41 1.6 1.6 0.00 0.00 0.00 92 1015.8
20260510061412 15 95 1.6 3.2 0.00 0.00 0.00 92 1016.3
20260510060908 15 248 3.2 4.8 0.00 0.00 0.00 93 1015.9
20260510060405 15 330 0.0 4.8 0.00 0.00 0.00 93 1015.6
20260510055901 15 37 1.6 11.3 0.00 0.00 0.00 95 1015.5
20260510055401 15 143 1.6 4.8 0.00 0.00 0.00 96 1015.5
20260510054855 15 14 4.8 9.7 0.00 0.00 0.00 97 1015.5
20260510054350 15 43 1.6 3.2 0.00 0.00 0.00 97 1015.3
20260510053845 15 108 3.2 9.7 0.00 0.00 0.00 98 1015.2
20260510053341 15 287 1.6 3.2 0.00 0.00 0.00 98 1014.8
20260510052838 15 55 1.6 6.4 0.00 0.00 0.00 98 1014.8
20260510052333 15 80 1.6 6.4 0.00 0.00 0.00 98 1015.2
20260510051830 15 337 1.6 3.2 0.00 0.00 0.00 98 1015.3
20260510051327 15 358 1.6 4.8 0.00 0.00 0.00 98 1014.9
20260510050824 16 9 0.0 3.2 0.00 0.00 0.00 98 1014.8
20260510050320 16 359 3.2 9.7 0.00 0.00 0.00 98 1014.1
20260510045817 16 10 0.0 1.6 0.00 0.53 0.53 98 1015.1
20260510045314 16 5 1.6 3.2 0.00 0.53 0.53 97 1014.1
20260510044811 16 31 0.0 1.6 0.00 0.53 0.53 97 1014.2
20260510044308 16 89 6.4 11.3 0.18 0.53 0.53 96 1013.6
20260510043804 16 185 0.0 1.6 0.30 0.53 0.53 95 1014.8
20260510043300 16 185 0.0 3.2 0.89 0.51 0.51 94 1014.9
20260510042758 17 26 4.8 6.4 1.68 0.48 0.48 93 1015.1
20260510042254 17 10 1.6 3.2 1.37 0.36 0.36 89 1016.6
20260510041750 18 315 3.2 4.8 0.79 0.20 0.20 84 1016.9
20260510041248 19 9 0.0 3.2 0.61 0.13 0.13 80 1017.0
20260510040745 20 184 0.0 6.4 0.30 0.08 0.08 75 1016.5
20260510040242 21 243 4.8 9.7 0.00 0.03 0.03 67 1015.8
20260510035736 22 247 1.6 3.2 0.00 0.03 0.03 63 1015.4
20260510035227 22 6 0.0 0.0 0.00 0.03 0.03 60 1014.1
20260510034723 22 6 0.0 1.6 0.00 0.03 0.03 56 1013.6
20260510034222 23 348 0.0 1.6 0.00 0.03 0.03 53 1013.4
20260510033717 23 311 1.6 3.2 0.00 0.03 0.03 53 1012.4
20260510033215 23 1 3.2 6.4 0.00 0.03 0.03 52 1011.9
20260510032711 23 5 0.0 4.8 0.00 0.03 0.03 52 1011.4
20260510032207 23 11 3.2 3.2 0.00 0.03 0.03 52 1010.8
20260510031702 23 42 6.4 9.7 0.00 0.03 0.03 52 1010.5
20260510031159 23 50 1.6 4.8 0.00 0.03 0.03 52 1010.4
20260510030658 23 6 0.0 6.4 0.00 0.03 0.03 52 1010.5
20260510030156 23 81 1.6 4.8 0.00 0.03 0.03 52 1010.5
20260510025653 24 304 3.2 11.3 0.00 0.03 0.03 51 1010.6
20260510025150 24 25 6.4 9.7 0.00 0.03 0.03 50 1011.0
20260510024648 24 40 3.2 4.8 0.00 0.03 0.03 50 1010.8
20260510024144 24 38 3.2 4.8 0.00 0.03 0.03 50 1010.9
20260510023639 24 54 1.6 6.4 0.00 0.03 0.03 50 1011.1
20260510023137 25 62 0.0 4.8 0.00 0.03 0.03 50 1010.9
20260510022636 25 320 0.0 11.3 0.00 0.03 0.03 50 1010.7
20260510022132 25 334 3.2 9.7 0.00 0.03 0.03 49 1010.8
20260510021627 25 257 0.0 3.2 0.00 0.03 0.03 49 1010.4
20260510021125 25 49 0.0 3.2 0.00 0.03 0.03 49 1010.6
20260510020619 25 92 1.6 4.8 0.00 0.03 0.03 49 1010.3
20260510020109 25 337 3.2 6.4 0.00 0.03 0.03 49 1010.0
20260510015606 25 18 4.8 6.4 0.00 0.03 0.03 48 1009.6
20260510015103 25 160 3.2 9.7 0.00 0.03 0.03 48 1009.2
20260510014558 25 318 1.6 6.4 0.00 0.03 0.03 48 1009.3
20260510014055 25 25 0.0 16.1 0.00 0.03 0.03 48 1008.8
20260510013550 25 72 1.6 3.2 0.00 0.03 0.03 48 1009.0
20260510013046 25 74 1.6 4.8 0.00 0.03 0.03 47 1009.0
20260510012545 25 31 3.2 3.2 0.00 0.03 0.03 47 1008.9
20260510012042 26 139 1.6 3.2 0.00 0.03 0.03 46 1009.1
20260510011541 26 80 3.2 6.4 0.00 0.03 0.03 45 1009.1
20260510011037 26 24 1.6 3.2 0.00 0.03 0.03 45 1009.1
20260510010534 26 64 3.2 4.8 0.00 0.03 0.03 46 1009.0
20260510010032 26 191 0.0 3.2 0.00 0.03 0.03 46 1009.0
20260510005527 26 145 3.2 4.8 0.00 0.03 0.03 45 1009.0
20260510005025 26 36 1.6 1.6 0.00 0.03 0.03 45 1009.2
20260510004522 26 118 0.0 4.8 0.00 0.03 0.03 45 1009.2
20260510004021 26 191 3.2 6.4 0.00 0.03 0.03 45 1009.4
20260510003516 26 150 1.6 4.8 0.00 0.03 0.03 45 1009.4
20260510003012 27 269 1.6 4.8 0.00 0.03 0.03 45 1009.0
20260510002508 27 64 4.8 6.4 0.00 0.03 0.03 45 1009.1
20260510002005 27 67 3.2 6.4 0.00 0.03 0.03 45 1009.3
20260510001502 27 36 0.0 1.6 0.00 0.03 0.03 45 1009.3
20260510001000 27 49 3.2 3.2 0.00 0.03 0.03 45 1009.3
20260510000455 27 211 0.0 3.2 0.00 0.03 0.03 44 1009.2
20260509235952 27 254 3.2 9.7 0.00 0.03 0.03 43 1009.1
20260509235449 28 268 1.6 9.7 0.00 0.03 0.03 42 1009.1
20260509234945 28 76 1.6 3.2 0.00 0.03 0.03 42 1009.2
20260509234442 28 37 1.6 4.8 0.00 0.03 0.03 41 1009.4
20260509233940 29 46 1.6 6.4 0.00 0.03 0.03 41 1009.4
20260509233437 28 325 4.8 11.3 0.00 0.03 0.03 41 1009.3
20260509232933 28 37 3.2 17.7 0.00 0.03 0.03 40 1009.4
20260509232431 29 292 6.4 14.5 0.00 0.03 0.03 38 1009.3
20260509231927 29 90 3.2 11.3 0.00 0.03 0.03 35 1009.5
20260509231423 29 42 0.0 11.3 0.00 0.03 0.03 37 1009.5
20260509230922 29 41 1.6 4.8 0.00 0.03 0.03 36 1009.6
20260509230418 28 1 0.0 4.8 0.00 0.03 0.03 37 1009.6
20260509225914 29 48 1.6 9.7 0.00 0.03 0.03 36 1009.6
20260509225411 29 39 3.2 6.4 0.00 0.03 0.03 38 1009.9
20260509224907 29 8 0.0 6.4 0.00 0.03 0.03 37 1009.7
20260509224403 29 36 4.8 6.4 0.00 0.03 0.03 36 1010.0
20260509223900 29 46 3.2 6.4 0.00 0.03 0.03 37 1010.0
20260509223357 30 28 4.8 9.7 0.00 0.03 0.03 32 1010.1
20260509222854 30 40 1.6 6.4 0.00 0.03 0.03 33 1010.1
20260509222354 30 143 1.6 3.2 0.00 0.03 0.03 31 1010.1
20260509221850 30 112 1.6 3.2 0.00 0.03 0.03 33 1010.2
20260509221348 29 26 1.6 9.7 0.00 0.03 0.03 33 1010.2
20260509220843 30 81 3.2 4.8 0.00 0.03 0.03 33 1010.3
20260509220339 30 152 4.8 6.4 0.00 0.03 0.03 33 1010.3
20260509215835 30 30 1.6 6.4 0.00 0.03 0.03 34 1010.3
20260509215332 30 74 1.6 9.7 0.00 0.03 0.03 34 1010.4
20260509214829 30 343 1.6 12.9 0.00 0.03 0.03 36 1010.2
20260509214326 30 21 1.6 4.8 0.00 0.03 0.03 34 1010.2
20260509213823 30 127 4.8 9.7 0.00 0.03 0.03 32 1010.2
20260509213318 30 31 0.0 4.8 0.00 0.03 0.03 34 1010.4
20260509212816 30 17 1.6 3.2 0.00 0.03 0.03 36 1010.5
20260509212314 30 62 3.2 9.7 0.00 0.03 0.03 33 1010.5
20260509211809 30 49 0.0 4.8 0.00 0.03 0.03 38 1010.4
20260509211305 30 149 3.2 6.4 0.00 0.03 0.03 34 1010.7
20260509210802 30 50 1.6 4.8 0.00 0.03 0.03 35 1010.8
20260509210259 30 18 0.0 4.8 0.00 0.03 0.03 37 1010.7
20260509205758 30 76 4.8 6.4 0.00 0.03 0.03 36 1010.8
20260509205248 30 30 4.8 6.4 0.00 0.03 0.03 36 1010.8
20260509204744 30 99 1.6 9.7 0.00 0.03 0.03 36 1011.0
20260509204241 30 79 0.0 4.8 0.00 0.03 0.03 38 1010.9
20260509203737 30 124 1.6 4.8 0.00 0.03 0.03 35 1011.0
20260509203235 30 100 0.0 3.2 0.00 0.03 0.03 39 1011.0
20260509202731 30 247 3.2 6.4 0.00 0.03 0.03 35 1011.0
20260509202227 30 103 0.0 3.2 0.00 0.03 0.03 34 1011.1
20260509201721 29 275 1.6 6.4 0.00 0.03 0.03 36 1011.1
20260509201218 29 59 0.0 3.2 0.00 0.03 0.03 37 1011.2
20260509200714 29 14 0.0 4.8 0.00 0.03 0.03 37 1011.3
20260509200210 29 76 0.0 1.6 0.00 0.03 0.03 34 1011.3
20260509195705 30 49 1.6 4.8 0.00 0.03 0.03 36 1011.4
20260509195200 29 260 0.0 1.6 0.00 0.03 0.03 37 1011.3
20260509194655 30 61 4.8 6.4 0.00 0.03 0.03 34 1011.6
20260509194152 28 68 0.0 4.8 0.00 0.03 0.03 35 1011.6
20260509193649 29 53 3.2 6.4 0.00 0.03 0.03 34 1011.8
20260509193144 30 75 1.6 3.2 0.00 0.03 0.03 33 1011.7
20260509192641 30 75 0.0 1.6 0.00 0.03 0.03 39 1011.6
20260509192135 28 96 1.6 3.2 0.00 0.03 0.03 38 1011.8
20260509191630 29 16 1.6 4.8 0.00 0.03 0.03 36 1012.0
20260509191127 28 352 3.2 11.3 0.00 0.03 0.03 36 1011.9
20260509190623 28 256 1.6 4.8 0.00 0.03 0.03 36 1012.0
20260509190121 29 65 4.8 9.7 0.00 0.03 0.03 34 1012.0
20260509185618 29 70 0.0 1.6 0.00 0.03 0.03 40 1012.1
20260509185114 28 71 1.6 3.2 0.00 0.03 0.03 30 1012.1
20260509184612 28 65 1.6 4.8 0.00 0.03 0.03 32 1012.1
20260509184109 28 42 1.6 9.7 0.00 0.03 0.03 37 1012.2
20260509183604 28 188 1.6 3.2 0.00 0.03 0.03 37 1012.2
20260509183100 28 268 3.2 4.8 0.00 0.03 0.03 40 1012.2
20260509182557 28 73 4.8 6.4 0.00 0.03 0.03 40 1012.4
20260509182053 28 197 1.6 4.8 0.00 0.03 0.03 37 1012.3
20260509181552 28 63 1.6 4.8 0.00 0.03 0.03 39 1012.4
20260509181049 28 114 1.6 4.8 0.00 0.03 0.03 39 1012.5
20260509180544 27 50 1.6 12.9 0.00 0.03 0.03 38 1012.5
20260509180042 28 341 3.2 6.4 0.00 0.03 0.03 42 1012.6
20260509175537 27 197 1.6 4.8 0.00 0.03 0.03 42 1012.7
20260509175035 27 260 3.2 3.2 0.00 0.03 0.03 42 1012.8
20260509174531 28 59 1.6 3.2 0.00 0.03 0.03 41 1013.0
20260509174026 27 318 1.6 4.8 0.00 0.03 0.03 40 1012.8
20260509173520 27 310 0.0 3.2 0.00 0.03 0.03 41 1013.1
20260509173018 27 288 1.6 3.2 0.00 0.03 0.03 40 1013.1
20260509172515 27 207 3.2 6.4 0.00 0.03 0.03 43 1013.3
20260509172010 26 316 0.0 3.2 0.00 0.03 0.03 45 1013.2
20260509171506 26 68 4.8 6.4 0.00 0.03 0.03 41 1013.3
20260509171003 26 43 4.8 9.7 0.00 0.03 0.03 47 1013.2
20260509170458 26 284 3.2 11.3 0.00 0.03 0.03 49 1013.4
20260509165954 25 325 3.2 4.8 0.00 0.03 0.03 56 1013.5
20260509165453 25 60 1.6 11.3 0.00 0.03 0.03 58 1013.4
20260509164949 25 127 4.8 9.7 0.00 0.03 0.03 59 1013.4
20260509164445 25 11 1.6 4.8 0.00 0.03 0.03 58 1013.3
20260509163941 25 244 3.2 4.8 0.00 0.03 0.03 59 1013.4
20260509163439 24 32 4.8 6.4 0.00 0.03 0.03 59 1013.7
20260509162938 25 52 4.8 11.3 0.00 0.03 0.03 62 1013.6
20260509162437 24 242 4.8 6.4 0.00 0.03 0.03 62 1013.6
20260509161932 24 235 3.2 9.7 0.00 0.03 0.03 64 1013.7
20260509161429 23 235 0.0 3.2 0.00 0.03 0.03 64 1013.8
20260509160924 23 99 3.2 3.2 0.00 0.03 0.03 63 1013.7
20260509160420 23 262 3.2 4.8 0.00 0.03 0.03 63 1013.7
20260509155916 23 185 3.2 3.2 0.00 0.03 0.03 66 1013.5
20260509155413 23 223 3.2 4.8 0.00 0.03 0.03 67 1013.5
20260509154909 23 222 1.6 4.8 0.00 0.03 0.03 64 1013.6
20260509154405 23 302 1.6 3.2 0.00 0.03 0.03 66 1013.4
20260509153902 22 343 1.6 1.6 0.00 0.03 0.03 67 1013.6
20260509153400 22 271 0.0 1.6 0.00 0.03 0.03 70 1013.2
20260509152856 22 248 0.0 1.6 0.00 0.03 0.03 69 1013.4
20260509152352 22 108 0.0 3.2 0.00 0.03 0.03 69 1013.1
20260509151850 22 346 0.0 0.0 0.00 0.03 0.03 75 1013.2
20260509151345 22 346 0.0 0.0 0.00 0.03 0.03 72 1013.6
20260509150844 22 343 0.0 0.0 0.00 0.03 0.03 72 1013.5
20260509150341 22 343 0.0 1.6 0.00 0.03 0.03 74 1013.3
20260509145838 22 343 1.6 4.8 0.00 0.03 0.03 76 1013.2
20260509145333 22 344 0.0 3.2 0.00 0.03 0.03 78 1013.1
20260509144830 21 24 0.0 1.6 0.00 0.03 0.03 81 1013.1
20260509144327 21 38 1.6 1.6 0.00 0.03 0.03 82 1013.0
20260509143824 20 15 0.0 1.6 0.00 0.03 0.03 84 1013.2
20260509143321 20 67 0.0 3.2 0.00 0.03 0.03 85 1013.4
20260509142817 19 73 0.0 0.0 0.00 0.03 0.03 86 1013.1
20260509142313 18 114 0.0 1.6 0.00 0.03 0.03 90 1013.5
20260509141809 17 216 0.0 0.0 0.00 0.03 0.03 96 1013.6